Weather History for KHND - October, 2013

Change the Weather History Date:

Tuesday, October 1, 2013

  Actual Average (KLAS) Record (KLAS)
Temperature  
Mean Temperature 76 °F 76 °F  
Max Temperature 90 °F 87 °F 103 °F (1978)
Min Temperature 61 °F 65 °F 42 °F (1971)
Degree Days  
Heating Degree Days 0 0  
Month to date heating degree days 0  
Since 1 July heating degree days 1  
Cooling Degree Days 10 11  
Month to date cooling degree days 11  
Year to date cooling degree days 3388  
Growing Degree Days 26 (Base 50)    
Moisture  
Dew Point 29 °F    
Average Humidity 18    
Maximum Humidity 29    
Minimum Humidity 9    
Precipitation  
Precipitation 0.00 in 0.01 in 0.70 in (1976)
Month to date precipitation 0.01  
Year to date precipitation 3.07  
Snow  
Snow 0.00 in 0.00 in 0.00 in ()
Month to date snowfall 0.0  
Since 1 July snowfall 0.0  
Since 1 September snowfall 0.0  
Snow Depth -    
Sea Level Pressure  
Sea Level Pressure 29.84 in    
Wind  
Wind Speed 9 mph (SSW)    
Max Wind Speed 16 mph    
Max Gust Speed 22 mph    
Visibility 10 miles    
Events      
T = Trace of Precipitation, MM = Missing Value Source: NWS Daily Summary

Daily Weather History Graph

Daily Weather History Graph

Search for Another Location

Airport or City:

Trip Planner

Search our weather history database for the weather conditions in past years. The results will help you decide how hot, cold, wet, or windy it might be!

Date:

Astronomy

Oct. 01, 2013 Rise Set
Actual Time 6:35 AM PDT 6:23 PM PDT
Civil Twilight 6:10 AM PDT 6:49 PM PDT
Nautical Twilight 5:40 AM PDT 7:18 PM PDT
Astronomical Twilight 5:10 AM PDT 7:48 PM PDT
Moon 3:19 AM PDT (10/1) 4:25 PM PDT (10/1)
Length of Visible Light 12h 38m
Length of Day
11h 47m
Waning Crescent, 11% of the Moon is Illuminated
Oct 1
Waning Crescent
Oct 4
New
Oct 11
First Quarter
Oct 18
Full
Oct 26
Last Quarter

Hourly Weather History & Observations

Time (PDT) Temp. Dew Point Humidity Pressure Visibility Wind Dir Wind Speed Gust Speed Precip Events Conditions
12:56 AM 65.8 °F 28.0 °F 24% 29.84 in 10.0 mi South 9.2 mph - N/A   Clear
1:56 AM 70.9 °F 28.0 °F 20% 29.84 in 10.0 mi South 12.7 mph - N/A   Clear
2:56 AM 66.9 °F 27.1 °F 22% 29.83 in 10.0 mi SSW 12.7 mph - N/A   Clear
3:56 AM 65.8 °F 27.1 °F 23% 29.84 in 10.0 mi SSW 12.7 mph - N/A   Clear
4:56 AM 64.9 °F 27.1 °F 24% 29.85 in 10.0 mi South 10.4 mph - N/A   Clear
5:56 AM 64.9 °F 27.1 °F 24% 29.86 in 10.0 mi SW 5.8 mph - N/A   Clear
6:56 AM 61.0 °F 27.1 °F 28% 29.89 in 10.0 mi South 6.9 mph - N/A   Clear
7:56 AM 64.9 °F 32.0 °F 29% 29.90 in 10.0 mi South 5.8 mph - N/A   Clear
8:56 AM 73.9 °F 32.9 °F 22% 29.90 in 10.0 mi Calm Calm - N/A   Clear
9:56 AM 77.0 °F 32.9 °F 20% 29.91 in 10.0 mi North 6.9 mph - N/A   Clear
10:56 AM 79.9 °F 34.0 °F 19% 29.90 in 10.0 mi NE 6.9 mph - N/A   Clear
11:56 AM 84.9 °F 32.0 °F 15% 29.88 in 10.0 mi NNE 4.6 mph - 0.00 in   Clear
12:56 PM 88.0 °F 27.1 °F 11% 29.85 in 10.0 mi SSW 9.2 mph - N/A   Clear
1:56 PM 90.0 °F 27.1 °F 10% 29.81 in 10.0 mi WSW 8.1 mph - N/A   Clear
2:56 PM 90.9 °F 27.1 °F 10% 29.79 in 10.0 mi SW 16.1 mph 21.9 mph N/A   Clear
3:56 PM 90.9 °F 25.2 °F 9% 29.77 in 10.0 mi Variable 6.9 mph - N/A   Clear
4:56 PM 90.0 °F 29.1 °F 11% 29.76 in 10.0 mi WSW 5.8 mph - N/A   Clear
5:56 PM 88.0 °F 31.1 °F 13% 29.77 in 10.0 mi WSW 11.5 mph - N/A   Clear
6:56 PM 82.9 °F 30.0 °F 15% 29.79 in 10.0 mi SSW 10.4 mph - N/A   Clear
7:56 PM 79.0 °F 30.0 °F 17% 29.81 in 10.0 mi South 8.1 mph - N/A   Clear
8:56 PM 77.0 °F 27.1 °F 16% 29.81 in 10.0 mi SSE 9.2 mph - N/A   Clear
9:56 PM 74.8 °F 27.1 °F 17% 29.82 in 10.0 mi SSW 10.4 mph - N/A   Clear
10:56 PM 73.9 °F 27.1 °F 18% 29.82 in 10.0 mi South 12.7 mph - N/A   Clear
11:56 PM 72.9 °F 28.0 °F 19% 29.81 in 10.0 mi South 12.7 mph - N/A   Clear